{"data":{"norad_id":66683,"intl_designator":"2025-276T","name":"6GSTARLAB","alt_names":[],"object_type":"PAYLOAD","status":"ACTIVE","operator":null,"country":"SPN","launch_date":"2025-11-28","launch_site_code":"AFWTR","launch_vehicle":null,"mission":null,"orbit_class":"UNKNOWN","rcs_meters":null,"size_class":null,"mass_kg":null,"dimensions":null,"purposes":[],"wikipedia_slug":null,"has_3d_model":false,"image_url":null,"decayed_at":null,"tle_current":{"epoch":"2026-05-25T04:31:50.833056Z","epoch_age_seconds":49013,"freshness":"FRESH","line1":"1 66683U 25276T   26145.18878279  .00002636  00000+0  13194-3 0  9996","line2":"2 66683  97.4248 218.9982 0007522  79.8945 280.3137 15.18247496 26911","mean_motion":15.18247496,"eccentricity":0.0007522,"inclination_deg":97.4248,"raan_deg":218.9982,"arg_perigee_deg":79.8945,"mean_anomaly_deg":280.3137,"bstar":0.00013194,"rev_number":2691,"period_min":94.846196275235,"perigee_km":505.95490599655,"apogee_km":516.3191298291,"semimajor_km":6889.2740179128,"source":"CELESTRAK","updated_at":"2026-05-25T13:38:06.410963Z"}}}